Briefing drone pour Billom

Rechercher une autre localisation

Conditions de vol :


Nous sommes le : Mardi 13 avril 2021
Il est 15:59 UTC (17:59 LT)

Lever de soleil : 04:37 UTC (06:37 LT)
Coucher de soleil : 18:57 UTC (20:57 LT)

Météo

L'essentiel des conditions de vol

VIGILANCE MÉTÉO FRANCE - Puy-de-Dôme (63)
Pas de vigilances particulieres
METAR de LFLC
LFLC 131530Z AUTO 01012KT 340V050 9999 BKN058 10/M02 Q1026 NOSIG

Date d'émission: 13/04/2021
Heure d'émission: 15:30 UTC
Vent: 010° (variable du 340° au 050°) pour 12 KT (22 km/h)
Visibilité horizontale: > 10 km
Plafond :
- Nuages morcelés à 5800ft (1768m)
Température: 10 °C
Point de rosée: -2 °C
Humidité: 43%
Pression (QNH): 1026 hPa
Conditions: Pas de changement dans les 2 heures (NOSIG)
TAF de LFLC
LFLC 131100Z 1312/1412 36012KT 9999 SCT055

Conditions prévues :

Heure d'émission : Bulletin éffectué le 13 à 12:00 UTC
Prévision : Valide du 13 a 12:00 UTC au 14 a 12:00 UTC
Vent : 360° pour 12 KT (22 km/h)
Visibilité : > 10 km
Nuages : Nuages eparts à 5500ft (1676 m)
WEBCAM POUR BILLOM

Réglementation

Voler en sécurité

CARTES AERONAUTIQUE 1/500.000
CARTES VAC (LFLC)
SUP AIP




Chargement des AIP...
NOTAM (BILLOM + Terrain à proximité / FIR )




Chargement des NOTAMS...
CONTACT PREFECTURE 63


Avertissement : Les données mises à disposition sont indicatives. Oxygène Drone ne pourra être tenu responsable de dégâts causés aux biens et aux personnes.